Location: Kawakawa
(35.3830°S, 174.0670°E)
Time: 17:20:28
(UTC+13:00)

Transit 2A Rocket - All Passes

Search period start: 12 December 2019 00:00
Search period end: 22 December 2019 00:00
Orbit: 594 x 909 km, 66.7° (Epoch: 11 December)

Date Brightness Start Highest point End Pass type
(mag) Time Alt. Az. Time Alt. Az. Time Alt. Az.
12 Dec - 03:39:19 10° NE 03:42:06 14° E 03:44:58 10° ESE visible
12 Dec - 05:18:15 10° NNW 05:23:55 75° WSW 05:30:00 10° SSE visible
12 Dec - 07:04:58 10° WSW 07:07:39 13° SW 07:10:23 10° SSW daylight
12 Dec - 14:05:45 10° SSW 14:11:27 47° ESE 14:16:43 10° NE daylight
12 Dec - 15:49:19 10° SW 15:53:38 22° WNW 15:57:42 10° NNW daylight
13 Dec - 04:35:49 10° NNW 04:41:24 65° ENE 04:47:24 10° SSE visible
13 Dec - 06:20:18 10° W 06:24:35 21° SW 06:29:03 10° S daylight
13 Dec - 13:23:35 10° S 13:28:40 29° SE 13:33:25 10° ENE daylight
13 Dec - 15:06:01 10° SW 15:11:24 39° WNW 15:16:21 10° N daylight
14 Dec - 03:53:54 10° N 03:59:02 37° ENE 04:04:30 10° SE visible
14 Dec - 05:36:33 10° WNW 05:41:41 32° SW 05:47:07 10° S daylight
14 Dec - 12:41:46 10° S 12:45:44 18° SE 12:49:31 10° E daylight
14 Dec - 14:23:10 10° SSW 14:29:02 71° WNW 14:34:22 10° NNE daylight
15 Dec - 03:12:41 10° NNE 03:16:48 21° ENE 03:21:07 10° ESE visible
15 Dec - 04:53:20 10° NW 04:58:56 53° WSW 05:04:54 10° SSE visible
15 Dec - 12:00:51 10° SSE 12:02:38 11° SE 12:04:23 10° ESE daylight
15 Dec - 13:40:37 10° SSW 13:46:30 67° ESE 13:51:52 10° NE daylight
15 Dec - 15:25:21 10° WSW 15:28:19 15° WNW 15:31:11 10° NW daylight
16 Dec - 02:33:11 10° ENE 02:34:40 11° E 02:36:11 10° E visible
16 Dec - 04:10:37 10° NNW 04:16:19 89° WSW 04:22:27 10° SSE visible
16 Dec - 05:56:28 10° W 05:59:52 15° SW 06:03:21 10° S daylight
16 Dec - 12:58:17 10° SSW 13:03:48 39° SE 13:08:54 10° NE daylight
16 Dec - 14:41:26 10° SW 14:46:10 27° WNW 14:50:34 10° NNW daylight
17 Dec - 03:28:21 10° N 03:33:52 54° ENE 03:39:45 10° SE visible
17 Dec - 05:12:11 10° WNW 05:16:51 24° SW 05:21:44 10° S visible
17 Dec - 12:16:13 10° S 12:20:58 24° SE 12:25:25 10° ENE daylight
17 Dec - 13:58:19 10° SW 14:03:53 48° WNW 14:08:59 10° N daylight
18 Dec - 02:46:39 10° NNE 02:51:32 30° ENE 02:56:44 10° SE visible
18 Dec - 04:28:39 10° WNW 04:34:01 38° SW 04:39:42 10° SSE visible
18 Dec - 11:34:36 10° S 11:37:58 15° SE 11:41:13 10° E daylight
18 Dec - 13:15:35 10° SSW 13:21:28 86° WNW 13:26:48 10° NNE daylight
19 Dec - 02:05:45 10° NE 02:09:20 17° ENE 02:13:04 10° ESE visible
19 Dec - 03:45:37 10° NW 03:51:18 64° WSW 03:57:23 10° SSE visible
19 Dec - 05:33:21 10° WSW 05:35:13 11° SW 05:37:06 10° SSW visible
19 Dec - 12:33:06 10° SSW 12:38:52 55° ESE 12:44:08 10° NE daylight
19 Dec - 14:17:10 10° WSW 14:20:52 18° WNW 14:24:23 10° NW daylight
20 Dec - 03:03:02 10° NNW 03:08:45 77° ENE 03:14:51 10° SSE visible
20 Dec - 04:48:09 10° W 04:52:06 18° SW 04:56:11 10° S visible
20 Dec - 11:50:52 10° S 11:56:08 33° SE 12:01:00 10° ENE daylight
20 Dec - 13:33:37 10° SW 13:38:41 32° WNW 13:43:21 10° N daylight
21 Dec - 02:20:58 10° N 02:26:21 44° ENE 02:32:04 10° SE visible
21 Dec - 04:04:10 10° WNW 04:09:09 28° SW 04:14:22 10° S visible
21 Dec - 11:08:55 10° S 11:13:14 21° SE 11:17:18 10° E daylight
21 Dec - 12:50:39 10° SW 12:56:21 59° WNW 13:01:32 10° N daylight
